Merrill, WI

6:13 AM CDT on July 28, 2016 (GMT -0500)
Merrill Municipal

Weather History for KRRL - February, 2014

Change the Weather History Date:

Friday, February 14, 2014

  Actual Average Record
Temperature  
Mean Temperature 7 °F -  
Max Temperature 19 °F 26 °F 44 °F (2002)
Min Temperature -5 °F 3 °F -26 °F (1970)
Degree Days  
Heating Degree Days 58    
Moisture  
Dew Point 3 °F    
Average Humidity 72    
Maximum Humidity 87    
Minimum Humidity 56    
Precipitation  
Precipitation 0.00 in - - ()
Sea Level Pressure  
Sea Level Pressure 29.74 in    
Wind  
Wind Speed 10 mph (NNW)    
Max Wind Speed 16 mph    
Max Gust Speed 22 mph    
Visibility 10 miles    
Events Snow    
Averages and records for this station are not official NWS values.
T = Trace of Precipitation, MM = Missing Value Source: NWS Daily Summary

Daily Weather History Graph

Daily Weather History Graph

Search for Another Location

Airport or City:

Trip Planner

Search our weather history database for the weather conditions in past years. The results will help you decide how hot, cold, wet, or windy it might be!

Date:

Astronomy

Feb. 14, 2014 Rise Set
Actual Time 7:01 AM CST 5:25 PM CST
Civil Twilight 6:31 AM CST 5:55 PM CST
Nautical Twilight 5:56 AM CST 6:30 PM CST
Astronomical Twilight 5:22 AM CST 7:04 PM CST
Moon 5:31 PM CST (2/14) 6:26 AM CST (2/14)
Length of Visible Light 11h 24m
Length of Day
10h 23m
Full, 100% of the Moon is Illuminated
Feb 14
Full
Feb 14
Full
Feb 22
Last Quarter
Mar 1
New
Mar 8
First Quarter

Hourly Weather History & Observations

Time (CST) Temp. Windchill Dew Point Humidity Pressure Visibility Wind Dir Wind Speed Gust Speed Precip Events Conditions
12:15 AM 15.8 °F 1.4 °F 9.5 °F 76% 29.54 in 10.0 mi NW 13.8 mph 18.4 mph N/A Snow Light Snow
12:35 AM 15.8 °F 4.2 °F 8.4 °F 73% 29.55 in 10.0 mi NNW 9.2 mph 19.6 mph N/A   Overcast
12:55 AM 15.4 °F 2.3 °F 7.9 °F 72% 29.55 in 10.0 mi NNW 11.5 mph 19.6 mph N/A   Overcast
1:15 AM 14.7 °F 2.1 °F 7.9 °F 74% 29.55 in 10.0 mi NW 10.4 mph - N/A   Overcast
1:35 AM 14.0 °F 1.2 °F 8.6 °F 79% 29.56 in 10.0 mi NW 10.4 mph 16.1 mph N/A Snow Light Snow
1:55 AM 13.1 °F 2.8 °F 6.8 °F 76% 29.56 in 10.0 mi NNW 6.9 mph - N/A   Mostly Cloudy
2:15 AM 12.6 °F -1.4 °F 6.8 °F 78% 29.57 in 10.0 mi NNW 11.5 mph - N/A Snow Light Snow
2:35 AM 12.7 °F -0.4 °F 7.2 °F 78% 29.57 in 10.0 mi NNW 10.4 mph - N/A Snow Light Snow
2:55 AM 12.2 °F -4.3 °F 6.3 °F 77% 29.56 in 10.0 mi NNW 16.1 mph 21.9 mph N/A   Overcast
3:15 AM 11.3 °F -4.9 °F 5.4 °F 77% 29.57 in 10.0 mi North 15.0 mph 20.7 mph N/A   Overcast
3:35 AM 11.3 °F -1.3 °F 5.4 °F 77% 29.59 in 10.0 mi NNW 9.2 mph 18.4 mph N/A Snow Light Snow
3:55 AM 11.3 °F -3.6 °F 5.0 °F 76% 29.58 in 10.0 mi NNW 12.7 mph 18.4 mph N/A Snow Light Snow
4:15 AM 11.3 °F -2.2 °F 5.5 °F 78% 29.59 in 10.0 mi NNW 10.4 mph - N/A Snow Light Snow
4:35 AM 10.8 °F -4.3 °F 5.0 °F 78% 29.59 in 10.0 mi NNW 12.7 mph 18.4 mph N/A   Overcast
4:55 AM 10.4 °F -0.4 °F 4.8 °F 78% 29.61 in 10.0 mi NNW 6.9 mph 17.3 mph N/A Snow Light Snow
5:15 AM 10.0 °F -3.7 °F 4.1 °F 77% 29.62 in 10.0 mi NNW 10.4 mph - N/A Snow Light Snow
5:35 AM 9.7 °F -2.4 °F 4.1 °F 78% 29.63 in 10.0 mi NNW 8.1 mph - N/A Snow Light Snow
5:55 AM 9.5 °F -4.4 °F 4.1 °F 79% 29.62 in 10.0 mi North 10.4 mph 16.1 mph N/A   Overcast
6:15 AM 9.1 °F -5.6 °F 3.9 °F 79% 29.63 in 10.0 mi NNW 11.5 mph 16.1 mph N/A Snow Light Snow
6:35 AM 9.0 °F -4.2 °F 3.9 °F 80% 29.63 in 10.0 mi NNW 9.2 mph - N/A Snow Light Snow
6:55 AM 9.0 °F -5.1 °F 4.1 °F 81% 29.64 in 10.0 mi North 10.4 mph 18.4 mph N/A Snow Light Snow
7:15 AM 9.0 °F -5.1 °F 3.9 °F 80% 29.66 in 10.0 mi North 10.4 mph - N/A Snow Light Snow
7:35 AM 9.1 °F -3.0 °F 4.1 °F 80% 29.67 in 10.0 mi North 8.1 mph 16.1 mph N/A   Overcast
7:55 AM 9.3 °F -3.8 °F 4.1 °F 79% 29.68 in 5.0 mi North 9.2 mph - N/A Snow Light Snow
8:15 AM 9.3 °F -4.6 °F 3.9 °F 79% 29.69 in 5.0 mi NNW 10.4 mph - N/A Snow Light Snow
8:35 AM 9.5 °F -4.4 °F 3.7 °F 77% 29.70 in 5.0 mi NNW 10.4 mph - N/A Snow Light Snow
8:55 AM 9.9 °F -3.1 °F 3.7 °F 76% 29.70 in 5.0 mi North 9.2 mph - N/A Snow Light Snow
9:15 AM 10.4 °F -2.4 °F 3.9 °F 75% 29.71 in 5.0 mi North 9.2 mph - N/A Snow Light Snow
9:35 AM 11.1 °F -4.5 °F 3.9 °F 73% 29.71 in 7.0 mi North 13.8 mph - N/A Snow Light Snow
9:55 AM 12.0 °F -4.0 °F 4.1 °F 71% 29.72 in 7.0 mi North 15.0 mph 19.6 mph N/A Snow Light Snow
10:15 AM 12.4 °F -1.6 °F 3.9 °F 69% 29.73 in 10.0 mi North 11.5 mph 16.1 mph N/A Snow Light Snow
10:35 AM 12.6 °F -1.4 °F 3.9 °F 68% 29.73 in 10.0 mi NNW 11.5 mph - N/A   Clear
10:55 AM 13.6 °F 1.6 °F 4.3 °F 66% 29.73 in 10.0 mi NNW 9.2 mph - N/A   Clear
11:15 AM 14.9 °F 4.0 °F 4.8 °F 64% 29.74 in 10.0 mi NNW 8.1 mph - N/A   Clear
11:35 AM 16.0 °F 4.4 °F 5.2 °F 62% 29.74 in 10.0 mi North 9.2 mph - N/A   Clear
11:55 AM 17.2 °F 10.2 °F 5.7 °F 61% 29.74 in 10.0 mi NNW 4.6 mph - N/A   Clear
12:15 PM 18.0 °F 6.9 °F 5.9 °F 59% 29.73 in 10.0 mi North 9.2 mph - N/A   Clear
12:35 PM 18.5 °F 7.5 °F 6.1 °F 58% 29.73 in 10.0 mi North 9.2 mph - N/A   Clear
12:55 PM 18.9 °F 6.5 °F 6.3 °F 58% 29.73 in 10.0 mi NW 11.5 mph - N/A   Clear
1:15 PM 18.9 °F 6.5 °F 5.9 °F 57% 29.73 in 10.0 mi NW 11.5 mph - N/A   Clear
1:35 PM 19.2 °F 7.7 °F 6.4 °F 58% 29.73 in 10.0 mi NNW 10.4 mph - N/A   Clear
1:55 PM 19.2 °F 8.4 °F 6.4 °F 58% 29.74 in 10.0 mi NNW 9.2 mph - N/A   Clear
2:15 PM 19.4 °F 9.5 °F 6.4 °F 57% 29.75 in 10.0 mi NW 8.1 mph - N/A   Clear
2:35 PM 19.4 °F 11.5 °F 6.3 °F 57% 29.75 in 10.0 mi NNW 5.8 mph - N/A   Clear
2:55 PM 19.0 °F 6.8 °F 6.1 °F 57% 29.76 in 10.0 mi NW 11.5 mph - N/A   Clear
3:15 PM 18.9 °F 8.0 °F 5.9 °F 57% 29.76 in 10.0 mi NNW 9.2 mph - N/A   Clear
3:35 PM 19.0 °F 8.2 °F 5.9 °F 57% 29.76 in 10.0 mi NNW 9.2 mph - N/A   Clear
3:55 PM 19.2 °F 7.7 °F 5.9 °F 56% 29.77 in 10.0 mi NW 10.4 mph - N/A   Clear
4:15 PM 19.2 °F 8.4 °F 6.1 °F 57% 29.79 in 10.0 mi NNW 9.2 mph - N/A   Clear
4:35 PM 18.9 °F 5.9 °F 5.9 °F 57% 29.80 in 10.0 mi NNW 12.7 mph 17.3 mph N/A   Clear
4:55 PM 17.8 °F 4.6 °F 5.5 °F 59% 29.80 in 10.0 mi NNW 12.7 mph - N/A   Clear
5:15 PM 16.7 °F 3.2 °F 5.0 °F 60% 29.82 in 10.0 mi NNW 12.7 mph - N/A   Clear
5:35 PM 15.4 °F 3.0 °F 4.6 °F 62% 29.83 in 10.0 mi North 10.4 mph - N/A   Clear
6:01 PM 14.0 °F 1.2 °F 3.2 °F 62% 29.85 in 10.0 mi North 10.4 mph - N/A   Clear
6:18 PM 12.2 °F -1.0 °F 3.2 °F 67% 29.86 in 10.0 mi North 10.4 mph - N/A   Clear
6:20 PM 12.9 °F -0.9 °F 3.2 °F 65% 29.86 in 10.0 mi North 11.5 mph - N/A   Clear
6:35 PM 11.7 °F 0.0 °F 2.7 °F 67% 29.86 in 10.0 mi NNE 8.1 mph - N/A   Clear
6:55 PM 10.6 °F -2.2 °F 2.7 °F 70% 29.87 in 10.0 mi North 9.2 mph - N/A   Clear
7:15 PM 9.3 °F -2.8 °F 2.1 °F 73% 29.88 in 10.0 mi North 8.1 mph - N/A   Clear
7:35 PM 8.4 °F -5.7 °F 1.8 °F 74% 29.89 in 10.0 mi North 10.4 mph 17.3 mph N/A   Clear
7:55 PM 6.8 °F -4.8 °F 0.5 °F 75% 29.89 in 10.0 mi NNE 6.9 mph - N/A   Clear
8:15 PM 6.3 °F -5.4 °F -0.2 °F 75% 29.89 in 10.0 mi North 6.9 mph - N/A   Clear
8:35 PM 5.4 °F -3.6 °F -1.1 °F 75% 29.90 in 10.0 mi North 4.6 mph - N/A   Clear
8:55 PM 4.1 °F -5.1 °F -1.5 °F 78% 29.90 in 10.0 mi North 4.6 mph - N/A   Clear
9:15 PM 3.2 °F -4.2 °F -1.7 °F 80% 29.90 in 10.0 mi North 3.5 mph - N/A   Clear
9:35 PM 1.2 °F - -2.9 °F 83% 29.90 in 10.0 mi Calm Calm - N/A   Clear
9:55 PM -0.0 °F - -3.1 °F 87% 29.90 in 10.0 mi Calm Calm - N/A   Clear
10:15 PM -5.1 °F - -8.1 °F 87% 29.91 in 10.0 mi Calm Calm - N/A   Clear
10:35 PM -5.4 °F - -8.3 °F 87% 29.93 in 10.0 mi Calm Calm - N/A   Clear
10:50 PM -5.6 °F - -8.7 °F 87% 29.93 in 10.0 mi Calm Calm - N/A   Clear
11:15 PM -3.6 °F - -6.5 °F 87% 29.93 in 10.0 mi Calm Calm - N/A   Clear
11:35 PM -1.7 °F -11.8 °F -5.3 °F 85% 29.94 in 10.0 mi NW 4.6 mph - N/A   Clear
11:55 PM -5.8 °F - -9.6 °F 84% 29.93 in 10.0 mi Calm Calm - N/A   Clear